GSAT-19 (42747 NORAD) Tracking and Keplerian Element Data

This shows tracking and keplerian element data for the satellite.

Feedback or suggestion? Click here.




ElementValue
Catalog42747
NameGSAT-19
Epoch Orbit565
Epoch Day348.6356756
Epoch Year2018
RAAN350.8305
Inclination0.0148
Eccentricity0.0001184
Argument of Perigee335.2978
Mean Anonmoly33.8642
Mean Motion1.00270373
Decay Rate1.36E-06
L11 42747U 17031A 18348.63567560 .00000136 00000-0 00000-0 0 9998
L22 42747 0.0148 350.8305 0001184 335.2978 33.8642 1.00270373 5659

Live tracking and technical data element details for GSAT-19 (NORAD 42747). GSAT-19 can be tracked NOW for your location showing map with azimuth and elevation plus other details from your city location.

Track the satellite on the map from your city or location and see movement details for azimuth, elevation, latitude, longitude, range, height, and movement on the map or in text.







IsCatalogInMostPopularTable: catalog: 42747, numindb: 150
Update: records affected: 1



GetName: 42747 GSAT-19

Hit Count: updated at: Sat, 15 Dec 2018 13:30:24 GMT